| time (UTC) | temp C | wind direction | speed KPH | gust KPH | rain 1hr cm | rain 24hr cm | rain mn cm | humidity % | barometer mb |
| 20260505224235 | 9 | 0.0 | 0.0 | 0.00 | 0.94 | 0.00 | 88 | 1007.5 | |
| 20260505223215 | 9 | 335 | 1.6 | 8.0 | 0.00 | 0.94 | 0.00 | 88 | 1007.5 |
| 20260505222215 | 9 | 0.0 | 4.8 | 0.00 | 0.97 | 0.00 | 88 | 1007.5 | |
| 20260505221235 | 9 | 336 | 0.0 | 1.6 | 0.00 | 0.94 | 0.00 | 88 | 1007.6 |
| 20260505220215 | 9 | 0.0 | 0.0 | 0.00 | 0.97 | 0.00 | 88 | 1007.7 | |
| 20260505215215 | 9 | 0.0 | 0.0 | 0.00 | 0.97 | 0.97 | 88 | 1007.7 | |
| 20260505214255 | 10 | 0.0 | 0.0 | 0.00 | 0.99 | 0.97 | 88 | 1007.7 | |
| 20260505213215 | 10 | 0.0 | 0.0 | 0.00 | 1.02 | 0.97 | 88 | 1007.7 | |
| 20260505212235 | 10 | 0.0 | 0.0 | 0.00 | 1.02 | 0.97 | 87 | 1007.8 | |
| 20260505211235 | 10 | 0.0 | 4.8 | 0.00 | 1.02 | 0.97 | 87 | 1007.9 | |
| 20260505210215 | 10 | 0.0 | 0.0 | 0.00 | 1.02 | 0.97 | 87 | 1007.9 | |
| 20260505205215 | 10 | 0.0 | 1.6 | 0.00 | 1.02 | 0.97 | 87 | 1008.0 | |
| 20260505204215 | 10 | 0.0 | 0.0 | 0.00 | 1.02 | 0.97 | 87 | 1008.0 | |
| 20260505203215 | 10 | 0.0 | 0.0 | 0.00 | 1.02 | 0.97 | 87 | 1008.0 | |
| 20260505202215 | 10 | 279 | 0.0 | 1.6 | 0.00 | 1.02 | 0.97 | 87 | 1008.0 |
| 20260505201215 | 10 | 0.0 | 0.0 | 0.00 | 1.02 | 0.97 | 87 | 1008.0 | |
| 20260505200215 | 10 | 0.0 | 0.0 | 0.00 | 1.02 | 0.97 | 87 | 1007.9 | |
| 20260505195215 | 10 | 0.0 | 0.0 | 0.00 | 1.02 | 0.97 | 87 | 1007.9 | |
| 20260505194215 | 10 | 0.0 | 1.6 | 0.00 | 1.02 | 0.97 | 87 | 1007.8 | |
| 20260505193215 | 10 | 0.0 | 0.0 | 0.00 | 1.02 | 0.97 | 87 | 1007.7 | |
| 20260505192235 | 10 | 0.0 | 0.0 | 0.00 | 1.04 | 0.97 | 87 | 1007.6 | |
| 20260505191215 | 10 | 0.0 | 0.0 | 0.00 | 1.04 | 0.97 | 87 | 1007.6 | |
| 20260505190215 | 10 | 0.0 | 0.0 | 0.00 | 1.07 | 0.97 | 87 | 1007.5 | |
| 20260505185215 | 10 | 333 | 0.0 | 1.6 | 0.00 | 1.07 | 0.97 | 87 | 1007.5 |
| 20260505184215 | 10 | 0.0 | 0.0 | 0.00 | 1.07 | 0.97 | 87 | 1007.5 | |
| 20260505183215 | 10 | 0.0 | 1.6 | 0.00 | 1.07 | 0.97 | 87 | 1007.5 | |
| 20260505182217 | 10 | 0.0 | 0.0 | 0.00 | 1.07 | 0.97 | 87 | 1007.4 | |
| 20260505181217 | 10 | 0.0 | 0.0 | 0.00 | 1.07 | 0.97 | 87 | 1007.5 | |
| 20260505180217 | 10 | 0.0 | 0.0 | 0.00 | 1.07 | 0.97 | 87 | 1007.6 | |
| 20260505175217 | 10 | 0.0 | 0.0 | 0.00 | 1.07 | 0.97 | 87 | 1007.6 | |
| 20260505174217 | 10 | 0.0 | 0.0 | 0.00 | 1.07 | 0.97 | 87 | 1007.5 | |
| 20260505173237 | 10 | 0.0 | 0.0 | 0.00 | 1.07 | 0.97 | 87 | 1007.5 | |
| 20260505172217 | 10 | 0.0 | 0.0 | 0.00 | 1.07 | 0.97 | 87 | 1007.5 | |
| 20260505171237 | 10 | 0.0 | 1.6 | 0.00 | 1.07 | 0.97 | 87 | 1007.5 | |
| 20260505170217 | 10 | 0.0 | 0.0 | 0.00 | 1.07 | 0.97 | 87 | 1007.6 | |
| 20260505165237 | 10 | 0.0 | 3.2 | 0.00 | 1.07 | 0.97 | 87 | 1007.6 | |
| 20260505164237 | 10 | 323 | 0.0 | 4.8 | 0.00 | 1.07 | 0.97 | 87 | 1007.6 |
| 20260505163215 | 10 | 334 | 0.0 | 8.0 | 0.00 | 1.07 | 0.97 | 87 | 1007.6 |
| 20260505162217 | 10 | 0.0 | 0.0 | 0.00 | 1.07 | 0.97 | 87 | 1007.8 | |
| 20260505161217 | 11 | 315 | 0.0 | 1.6 | 0.00 | 1.07 | 0.97 | 86 | 1007.8 |
| 20260505160217 | 11 | 0.0 | 1.6 | 0.00 | 1.07 | 0.97 | 87 | 1007.8 | |
| 20260505153217 | 11 | 0.0 | 0.0 | 0.00 | 1.07 | 0.97 | 87 | 1008.0 | |
| 20260505152216 | 11 | 0.0 | 1.6 | 0.00 | 1.07 | 0.97 | 87 | 1008.1 | |
| 20260505151237 | 11 | 0.0 | 0.0 | 0.00 | 1.07 | 0.97 | 87 | 1008.1 | |
| 20260505150216 | 11 | 335 | 1.6 | 6.4 | 0.00 | 1.07 | 0.97 | 87 | 1008.1 |
| 20260505140237 | 11 | 0.0 | 0.0 | 0.00 | 1.07 | 0.97 | 87 | 1008.4 | |
| 20260505130217 | 10 | 0.0 | 1.6 | 0.00 | 1.07 | 0.97 | 87 | 1008.9 | |
| 20260505124236 | 11 | 336 | 0.0 | 8.0 | 0.00 | 1.07 | 0.97 | 87 | 1008.9 |
| 20260505123217 | 11 | 0.0 | 1.6 | 0.00 | 1.07 | 0.97 | 87 | 1009.0 | |
| 20260505122217 | 11 | 0.0 | 0.0 | 0.00 | 1.07 | 0.97 | 88 | 1009.0 | |
| 20260505121216 | 11 | 356 | 0.0 | 11.3 | 0.00 | 1.07 | 0.97 | 87 | 1009.0 |
| 20260505120237 | 11 | 313 | 0.0 | 9.7 | 0.00 | 1.07 | 0.97 | 88 | 1009.0 |
| 20260505115236 | 11 | 308 | 0.0 | 6.4 | 0.00 | 1.04 | 0.94 | 89 | 1009.0 |
| 20260505114236 | 10 | 0.0 | 0.0 | 0.00 | 1.04 | 0.94 | 88 | 1009.1 | |
| 20260505113236 | 10 | 0.0 | 0.0 | 0.00 | 1.04 | 0.94 | 88 | 1009.1 | |
| 20260505112216 | 10 | 0.0 | 0.0 | 0.00 | 1.04 | 0.94 | 89 | 1009.1 | |
| 20260505111216 | 10 | 0.0 | 0.0 | 0.00 | 1.04 | 0.94 | 89 | 1009.2 | |
| 20260505110216 | 10 | 0.0 | 0.0 | 0.00 | 1.04 | 0.94 | 89 | 1009.3 | |
| 20260505102216 | 10 | 0.0 | 0.0 | 0.00 | 1.04 | 0.94 | 89 | 1009.3 | |
| 20260505101216 | 10 | 0.0 | 4.8 | 0.00 | 1.04 | 0.94 | 89 | 1009.3 | |
| 20260505100216 | 10 | 0.0 | 0.0 | 0.00 | 1.04 | 0.94 | 89 | 1009.4 | |
| 20260505095216 | 10 | 0.0 | 0.0 | 0.00 | 1.04 | 0.94 | 89 | 1009.5 | |
| 20260505094216 | 10 | 0.0 | 0.0 | 0.00 | 1.04 | 0.94 | 89 | 1009.5 | |
| 20260505093216 | 10 | 346 | 1.6 | 9.7 | 0.00 | 1.04 | 0.94 | 89 | 1009.5 |
| 20260505092216 | 10 | 0.0 | 0.0 | 0.00 | 1.04 | 0.94 | 89 | 1009.5 | |
| 20260505091216 | 10 | 308 | 0.0 | 1.6 | 0.00 | 1.04 | 0.94 | 89 | 1009.5 |
| 20260505090216 | 10 | 324 | 0.0 | 11.3 | 0.00 | 1.04 | 0.94 | 89 | 1009.5 |
| 20260505085216 | 10 | 335 | 0.0 | 11.3 | 0.00 | 1.04 | 0.94 | 90 | 1009.5 |
| 20260505084216 | 10 | 0.0 | 0.0 | 0.00 | 1.04 | 0.94 | 90 | 1009.5 | |
| 20260505083217 | 10 | 0.0 | 0.0 | 0.00 | 1.04 | 0.94 | 90 | 1009.5 | |
| 20260505082216 | 10 | 319 | 0.0 | 1.6 | 0.00 | 1.04 | 0.94 | 90 | 1009.5 |
| 20260505081216 | 10 | 46 | 0.0 | 1.6 | 0.00 | 1.04 | 0.94 | 90 | 1009.4 |
| 20260505080216 | 10 | 0.0 | 0.0 | 0.00 | 1.04 | 0.94 | 90 | 1009.4 | |
| 20260505075216 | 10 | 329 | 3.2 | 11.3 | 0.00 | 1.04 | 0.94 | 90 | 1009.4 |
| 20260505074236 | 10 | 0.0 | 1.6 | 0.00 | 1.04 | 0.94 | 90 | 1009.3 | |
| 20260505073216 | 10 | 326 | 1.6 | 9.7 | 0.00 | 1.04 | 0.94 | 90 | 1009.3 |
| 20260505072216 | 10 | 333 | 1.6 | 9.7 | 0.00 | 1.04 | 0.94 | 90 | 1009.3 |
| 20260505071216 | 10 | 324 | 4.8 | 11.3 | 0.00 | 1.04 | 0.94 | 90 | 1009.3 |
| 20260505070236 | 10 | 355 | 0.0 | 3.2 | 0.00 | 1.04 | 0.94 | 90 | 1009.3 |
| 20260505065216 | 10 | 355 | 1.6 | 3.2 | 0.00 | 1.04 | 0.94 | 90 | 1009.3 |
| 20260505064216 | 10 | 47 | 3.2 | 4.8 | 0.00 | 1.04 | 0.94 | 90 | 1009.4 |
| 20260505063216 | 10 | 333 | 1.6 | 6.4 | 0.00 | 1.04 | 0.94 | 90 | 1009.4 |
| 20260505062256 | 10 | 0.0 | 0.0 | 0.00 | 1.04 | 0.94 | 90 | 1009.5 | |
| 20260505061216 | 11 | 0.0 | 0.0 | 0.00 | 1.04 | 0.94 | 90 | 1009.5 | |
| 20260505060216 | 11 | 326 | 0.0 | 9.7 | 0.00 | 1.04 | 0.94 | 90 | 1009.5 |
| 20260505055216 | 11 | 0.0 | 0.0 | 0.00 | 1.04 | 0.94 | 90 | 1009.5 | |
| 20260505054216 | 11 | 0.0 | 1.6 | 0.00 | 1.04 | 0.94 | 90 | 1009.4 | |
| 20260505053216 | 11 | 0.0 | 0.0 | 0.00 | 1.04 | 0.94 | 90 | 1009.4 | |
| 20260505052216 | 11 | 24 | 1.6 | 4.8 | 0.00 | 1.04 | 0.94 | 90 | 1009.4 |
| 20260505051216 | 11 | 24 | 0.0 | 3.2 | 0.00 | 1.04 | 0.94 | 90 | 1009.3 |
| 20260505050218 | 11 | 0.0 | 1.6 | 0.00 | 1.02 | 0.94 | 90 | 1009.2 | |
| 20260505041216 | 11 | 331 | 0.0 | 3.2 | 0.00 | 1.02 | 0.94 | 90 | 1009.2 |
| 20260505040216 | 11 | 0.0 | 0.0 | 0.00 | 1.02 | 0.94 | 90 | 1009.2 | |
| 20260505035215 | 12 | 326 | 1.6 | 8.0 | 0.00 | 1.02 | 0.94 | 90 | 1009.1 |
| 20260505034216 | 12 | 5 | 0.0 | 3.2 | 0.00 | 1.02 | 0.94 | 90 | 1009.2 |
| 20260505033215 | 12 | 340 | 0.0 | 4.8 | 0.00 | 1.02 | 0.94 | 90 | 1009.1 |
| 20260505032236 | 12 | 323 | 3.2 | 11.3 | 0.03 | 1.02 | 0.94 | 90 | 1009.2 |
| 20260505031235 | 12 | 331 | 3.2 | 9.7 | 0.05 | 1.02 | 0.94 | 90 | 1009.2 |
| 20260505030236 | 12 | 306 | 1.6 | 4.8 | 0.13 | 1.02 | 0.94 | 90 | 1009.2 |
| 20260505025216 | 13 | 0.0 | 0.0 | 0.25 | 1.02 | 0.94 | 90 | 1009.3 | |
| 20260505024236 | 13 | 0.0 | 0.0 | 0.36 | 1.02 | 0.91 | 90 | 1009.4 | |
| 20260505023216 | 13 | 0.0 | 0.0 | 0.46 | 1.02 | 0.91 | 90 | 1009.4 | |
| 20260505022216 | 13 | 0.0 | 0.0 | 0.61 | 0.99 | 0.89 | 90 | 1009.3 | |
| 20260505021216 | 13 | 0.0 | 0.0 | 0.66 | 0.97 | 0.86 | 90 | 1009.3 | |
| 20260505020215 | 13 | 0.0 | 0.0 | 0.64 | 0.89 | 0.79 | 90 | 1009.3 | |
| 20260505015216 | 13 | 0.0 | 0.0 | 0.53 | 0.76 | 0.66 | 89 | 1009.3 | |
| 20260505014236 | 13 | 0.0 | 0.0 | 0.41 | 0.66 | 0.56 | 89 | 1009.3 | |
| 20260505013216 | 13 | 0.0 | 0.0 | 0.33 | 0.56 | 0.46 | 89 | 1009.5 | |
| 20260505012215 | 13 | 0.0 | 0.0 | 0.18 | 0.38 | 0.28 | 89 | 1009.6 | |
| 20260505011216 | 13 | 0.0 | 0.0 | 0.13 | 0.30 | 0.18 | 89 | 1009.6 | |
| 20260505010215 | 13 | 0.0 | 0.0 | 0.08 | 0.28 | 0.15 | 89 | 1009.6 | |
| 20260505005215 | 13 | 0.0 | 0.0 | 0.08 | 0.25 | 0.13 | 89 | 1009.7 | |
| 20260505004255 | 13 | 0.0 | 0.0 | 0.08 | 0.25 | 0.13 | 89 | 1009.8 | |
| 20260505003216 | 13 | 0.0 | 0.0 | 0.08 | 0.23 | 0.10 | 89 | 1009.8 | |
| 20260505002215 | 13 | 0.0 | 0.0 | 0.03 | 0.18 | 0.08 | 89 | 1010.0 | |
| 20260505001215 | 13 | 0.0 | 0.0 | 0.00 | 0.18 | 0.05 | 89 | 1010.1 | |
| 20260505000215 | 13 | 0.0 | 0.0 | 0.00 | 0.18 | 0.05 | 89 | 1010.1 | |
| 20260504235215 | 13 | 0.0 | 0.0 | 0.00 | 0.18 | 0.05 | 89 | 1010.2 | |
| 20260504234215 | 13 | 0.0 | 0.0 | 0.00 | 0.18 | 0.05 | 89 | 1010.1 | |
| 20260504233215 | 13 | 0.0 | 0.0 | 0.00 | 0.15 | 0.03 | 89 | 1010.3 | |
| 20260504232215 | 13 | 0.0 | 0.0 | 0.00 | 0.15 | 0.03 | 89 | 1010.3 | |
| 20260504231215 | 13 | 0.0 | 0.0 | 0.00 | 0.15 | 0.03 | 89 | 1010.5 | |
| 20260504230215 | 13 | 0.0 | 0.0 | 0.03 | 0.15 | 0.03 | 89 | 1010.6 | |
| 20260504225215 | 13 | 0.0 | 0.0 | 0.03 | 0.15 | 0.03 | 89 | 1010.7 |